Regional Weather Roundup
Issued by NWS Sioux Falls, SD

Home | Current Version | Previous Version | Text Only | Print | Product List | Glossary On
Versions: 1 2 3 4 5 6 7 8 9 10 11 12 13 14 15 16 17 18 19 20 21 22 23 24 25 26 27 28 29 30 31 32 33 34 35 36 37 38 39 40 41 42 43 44 45 46 47 48 49 50
000
ASUS43 KFSD 301610
RWRFSD

WEATHER ROUNDUP FOR SE SOUTH DAKOTA/SW MINNESOTA/NW IOWA
NATIONAL WEATHER SERVICE SIOUX FALLS SD
1100 AM CDT THU JUL 30 2015

NOTE: "FAIR" INDICATES FEW OR NO CLOUDS BELOW 12,000 FEET WITH NO
SIGNIFICANT WEATHER AND OR OBSTRUCTIONS TO VISIBILITY.


SDZ038>040-050-052>070-301700-
SOUTHEAST SOUTH DAKOTA

CITY           SKY/WX    TMP DP  RH WIND       PRES   REMARKS
BROOKINGS      SUNNY     75  57  53 N8        30.16S
CHAMBERLAIN    SUNNY     77  58  50 SW5       30.16S
HURON          SUNNY     78  57  48 CALM      30.14R
MADISON        FAIR      77  57  50 N6        30.16S
MITCHELL       SUNNY     78  59  51 CALM      30.15S
SIOUX FALLS    SUNNY     78  61  55 W7        30.15S
WINNER         FAIR      83  53  35 SW6       30.18S
YANKTON        SUNNY     79  61  53 W12       30.16S
$$

MNZ071-072-080-081-089-090-097-098-301700-
SOUTHWEST MINNESOTA

CITY           SKY/WX    TMP DP  RH WIND       PRES   REMARKS
FAIRMONT       SUNNY     81  57  44 W10       30.12S
JACKSON        SUNNY     79  61  53 W9        30.15R
LUVERNE        SUNNY     77  61  57 W5        30.16R
MARSHALL       SUNNY     79  55  44 NW10      30.14R
MONTEVIDEO     SUNNY     81  63  54 NW6       30.12S
PIPESTONE      SUNNY     77  59  53 NW7       30.16R
REDWOOD FALLS  SUNNY     80  59  48 NW10      30.10S
TRACY          SUNNY     79  61  53 NW9       30.14R
WINDOM         SUNNY     81  59  47 W9        30.14R
WORTHINGTON    SUNNY     75  61  60 W9        30.15R
$$

IAZ001>003-012>014-020>022-031-032-NEZ013-014-SDZ071-301700-
NORTHWEST IOWA

CITY           SKY/WX    TMP DP  RH WIND       PRES   REMARKS
CHEROKEE       SUNNY     77  64  63 W7        30.17S
DENISON        HAZE      77  64  65 SW9       30.18S VSB 1
ESTHERVILLE    SUNNY     78  63  59 W5        30.14R
LE MARS        SUNNY     79  64  61 W12       30.17F
ORANGE CITY    SUNNY     75  63  64 W10       30.17R
SHELDON        SUNNY     77  63  61 W12       30.15S
SIOUX CITY     SUNNY     80  63  55 W14       30.18S
SPENCER        SUNNY     79  62  56 W10       30.15S
STORM LAKE     SUNNY     75  63  64 W13G20    30.19S
$$

ABBREVIATIONS USED IN REMARKS
   TC - TEMPERATURE IN CELSIUS
  WCI - WIND CHILL INDEX
   HX - HEAT INDEX
  VSB - VISIBILITY




USA.gov is the U.S. government's official web portal to all federal, state and local government web resources and services.